Meath Environmental Platform

Observations for Trim Market St

Time AQI Temp °C Hum % Pres Pa CO μg/m³ H₂S μg/m³ NO μg/m³ NO₂ μg/m³ O₃ μg/m³ SO₂ μg/m³ PM1 μg/m³ PM2.5 μg/m³ PM10 μg/m³
Tuesday 18 August 2026
15:02 2 25.1 48 64,666 0 0 1.9 11.47 62.18 0 0 2.02 2.22
15:01 2 25.1 48 64,670 0 0 1.9 11.98 49.11 0 0 2.02 2.22
14:59 2 25.1 48 64,637 0 0 1.77 8.23 47.86 0 0 2.03 2.23
14:58 2 25.1 48 64,574 0 0 1.76 11.38 62.52 0 0 2.03 2.23
14:57 2 25.1 48 64,617 0 0 1.87 11.69 61.13 0 0 2.03 2.23
14:56 2 25.1 48 64,709 0 0 1.86 11.21 60 0 0 2.03 2.21
14:55 2 25.1 48 64,760 0 0 1.88 11.38 62.31 0 0 2.04 2.21
14:54 2 25.2 48 64,831 0 0 1.78 10.55 45.07 0 1.43 3.6 4.49
14:52 2 25.3 47 64,937 0.97 0 2.13 11.01 65.81 0 0 2.05 2.26
14:49 2 25.3 47 65,025 0.24 0 2.55 50.57 32.5 2.86 0 2.05 2.26
14:44 2 25.2 47 65,054 0 0 1.87 10.89 38.79 0 0 2.05 2.26
14:42 2 25.1 47 65,052 0 0 1.92 10.72 41.12 0 0 2.05 2.26
14:41 2 25.1 47 65,029 0 0 1.89 9.82 39.05 0 0 2.05 4.48
14:37 2 25.2 48 64,902 0 0 1.78 7.98 36.91 0 0 2.03 2.23
14:32 2 25.3 49 64,412 0 0 1.98 9.74 48.38 0 0 1.97 2.17
14:31 2 25.3 50 64,331 0 0 2.05 11.71 5.7 0 0 2.47 2.72
14:30 2 25.3 50 64,159 0.01 0 2.04 12.09 30 0 0 1.95 2.14
14:29 2 25.3 50 64,039 0 0 2.03 11.73 25.34 0 0 1.95 2.14
14:28 2 25.3 50 63,964 0.13 0 1.96 19.08 23.04 0 0 1.95 2.15
14:27 2 25.2 50 63,874 0 0 2.02 13.12 32.14 0 0 1.95 2.14